When you browse on this site, cookies collect data to enhance your experience and personalize the content and advertising you see.
Visit our Privacy Policy to learn more. By continuing to use the site, you agree to this use of cookies and data.
  • In Romania
  • List of Countries
  • For 7 days
  • Water Temperature
  • Satellite Maps
  • Weather Map
  • Weather Widgets
  • user-avatar
    Login

    Hourly Weather Arnesano

    Today, 16 July, Tuesday

    Time Temperature Precipitation Wind Pressure Humidity
    00:00 +24°C° 0.1 mm 1 mps 752 mmHg 71%
    01:00 +24°C° 0 mm 1 mps 752 mmHg 74%
    02:00 +24°C° 0.6 mm 1 mps 752 mmHg 75%
    03:00 +24°C° 0.6 mm 1 mps 752 mmHg 76%
    04:00 +23°C° 0.6 mm 2 mps 751 mmHg 77%
    05:00 +23°C° 1 mm 2 mps 752 mmHg 79%
    06:00 +22°C° 1 mm 3 mps 752 mmHg 80%
    07:00 +21°C° 0 mm 2 mps 751 mmHg 79%
    08:00 +21°C° 1.2 mm 2 mps 752 mmHg 80%
    09:00 +21°C° 1.2 mm 2 mps 752 mmHg 81%
    10:00 +20°C° 1.2 mm 3 mps 752 mmHg 81%
    11:00 +21°C° 0.2 mm 3 mps 753 mmHg 78%
    12:00 +22°C° 0.2 mm 3 mps 753 mmHg 75%
    13:00 +22°C° 0.2 mm 3 mps 753 mmHg 72%
    14:00 +22°C° 0.1 mm 3 mps 753 mmHg 74%
    15:00 +22°C° 0.1 mm 4 mps 753 mmHg 75%
    16:00 +21°C° 0.1 mm 4 mps 753 mmHg 76%
    17:00 +22°C° 0 mm 4 mps 752 mmHg 74%
    18:00 +22°C° 0 mm 5 mps 752 mmHg 72%
    19:00 +22°C° 0 mm 6 mps 752 mmHg 69%
    20:00 +22°C° 0 mm 6 mps 753 mmHg 70%
    21:00 +22°C° 0 mm 6 mps 753 mmHg 70%
    22:00 +22°C° 0 mm 6 mps 753 mmHg 71%
    23:00 +22°C° 0.1 mm 7 mps 753 mmHg 70%

    Tomorrow, 17 July, Wednesday

    Time Temperature Precipitation Wind Pressure Humidity
    00:00 +23°C° 0.1 mm 7 mps 753 mmHg 70%
    01:00 +23°C° 0.1 mm 8 mps 753 mmHg 70%
    02:00 +23°C° 0 mm 7 mps 753 mmHg 69%
    03:00 +23°C° 0 mm 7 mps 753 mmHg 68%
    04:00 +22°C° 0 mm 6 mps 753 mmHg 67%
    05:00 +23°C° 0 mm 6 mps 753 mmHg 63%
    06:00 +24°C° 0 mm 7 mps 753 mmHg 59%
    07:00 +26°C° 0 mm 7 mps 754 mmHg 54%
    08:00 +27°C° 0 mm 7 mps 754 mmHg 50%
    09:00 +28°C° 0 mm 8 mps 754 mmHg 47%
    10:00 +28°C° 0 mm 8 mps 755 mmHg 43%
    11:00 +29°C° 0 mm 8 mps 755 mmHg 42%
    12:00 +29°C° 0 mm 7 mps 755 mmHg 42%
    13:00 +30°C° 0 mm 7 mps 755 mmHg 41%
    14:00 +29°C° 0 mm 7 mps 755 mmHg 40%
    15:00 +29°C° 0 mm 7 mps 755 mmHg 39%
    16:00 +29°C° 0 mm 6 mps 754 mmHg 38%
    17:00 +28°C° 0 mm 6 mps 754 mmHg 43%
    18:00 +26°C° 0 mm 5 mps 755 mmHg 49%
    19:00 +25°C° 0 mm 4 mps 755 mmHg 54%
    20:00 +23°C° 0 mm 4 mps 755 mmHg 57%
    21:00 +24°C° 0 mm 3 mps 755 mmHg 61%
    22:00 +22°C° 0 mm 3 mps 755 mmHg 64%
    23:00 +23°C° 0 mm 2 mps 755 mmHg 66%

    Day after tomorrow, 18 July, Thursday

    Time Temperature Precipitation Wind Pressure Humidity
    00:00 +21°C° 0 mm 2 mps 755 mmHg 68%
    01:00 +21°C° 0 mm 2 mps 755 mmHg 70%
    02:00 +21°C° 0 mm 2 mps 755 mmHg 70%
    03:00 +20°C° 0 mm 2 mps 755 mmHg 71%
    04:00 +20°C° 0 mm 2 mps 755 mmHg 72%
    05:00 +23°C° 0 mm 2 mps 755 mmHg 65%
    06:00 +24°C° 0 mm 2 mps 755 mmHg 57%
    07:00 +26°C° 0 mm 2 mps 755 mmHg 50%
    08:00 +27°C° 0 mm 2 mps 755 mmHg 46%
    09:00 +28°C° 0 mm 2 mps 755 mmHg 41%
    10:00 +29°C° 0 mm 2 mps 756 mmHg 36%
    11:00 +30°C° 0 mm 2 mps 756 mmHg 36%
    12:00 +30°C° 0 mm 3 mps 756 mmHg 37%
    13:00 +30°C° 0 mm 3 mps 756 mmHg 37%
    14:00 +30°C° 0 mm 3 mps 756 mmHg 38%
    15:00 +30°C° 0 mm 3 mps 755 mmHg 39%
    16:00 +30°C° 0 mm 3 mps 755 mmHg 39%
    17:00 +29°C° 0 mm 3 mps 755 mmHg 45%
    18:00 +28°C° 0 mm 2 mps 755 mmHg 51%
    19:00 +26°C° 0 mm 2 mps 755 mmHg 57%
    20:00 +26°C° 0 mm 2 mps 756 mmHg 60%
    21:00 +25°C° 0 mm 2 mps 756 mmHg 64%
    22:00 +24°C° 0 mm 2 mps 756 mmHg 67%
    23:00 +24°C° 0 mm 2 mps 756 mmHg 68%

    19 July, Friday

    Time Temperature Precipitation Wind Pressure Humidity
    00:00 +24°C° 0 mm 2 mps 756 mmHg 70%
    01:00 +24°C° 0 mm 2 mps 756 mmHg 72%
    02:00 +23°C° 0 mm 1 mps 756 mmHg 73%
    03:00 +23°C° 0 mm 1 mps 756 mmHg 75%
    04:00 +22°C° 0 mm 1 mps 756 mmHg 77%
    05:00 +24°C° 0 mm 1 mps 756 mmHg 70%
    06:00 +25°C° 0 mm 1 mps 756 mmHg 63%
    07:00 +26°C° 0 mm 2 mps 756 mmHg 57%
    08:00 +28°C° 0 mm 2 mps 757 mmHg 50%
    09:00 +29°C° 0 mm 2 mps 757 mmHg 43%
    10:00 +30°C° 0 mm 2 mps 757 mmHg 36%
    11:00 +31°C° 0 mm 3 mps 757 mmHg 37%
    12:00 +31°C° 0 mm 3 mps 757 mmHg 37%
    13:00 +33°C° 0 mm 4 mps 757 mmHg 37%
    14:00 +33°C° 0 mm 4 mps 757 mmHg 39%
    15:00 +32°C° 0 mm 4 mps 757 mmHg 40%
    16:00 +32°C° 0 mm 4 mps 756 mmHg 41%
    17:00 +30°C° 0 mm 3 mps 757 mmHg 46%
    18:00 +29°C° 0 mm 3 mps 757 mmHg 52%
    19:00 +28°C° 0 mm 2 mps 757 mmHg 58%
    20:00 +27°C° 0 mm 2 mps 757 mmHg 62%
    21:00 +26°C° 0 mm 2 mps 757 mmHg 66%
    22:00 +25°C° 0 mm 2 mps 757 mmHg 70%
    23:00 +25°C° 0 mm 1 mps 757 mmHg 70%

    20 July, Saturday

    Time Temperature Precipitation Wind Pressure Humidity
    00:00 +25°C° 0 mm 1 mps 757 mmHg 70%
    01:00 +22°C° 0 mm 0 mps 757 mmHg 69%
    02:00 +22°C° 0 mm 0 mps 757 mmHg 69%
    03:00 +22°C° 0 mm 0 mps 757 mmHg 69%
    04:00 +23°C° 0 mm 1 mps 757 mmHg 69%
    05:00 +25°C° 0 mm 1 mps 757 mmHg 65%
    06:00 +26°C° 0 mm 1 mps 757 mmHg 60%
    07:00 +27°C° 0 mm 1 mps 758 mmHg 56%
    08:00 +28°C° 0 mm 1 mps 758 mmHg 51%
    09:00 +30°C° 0 mm 2 mps 758 mmHg 47%
    10:00 +31°C° 0 mm 2 mps 758 mmHg 42%
    11:00 +31°C° 0 mm 2 mps 759 mmHg 39%
    12:00 +33°C° 0 mm 3 mps 759 mmHg 37%
    13:00 +33°C° 0 mm 3 mps 759 mmHg 34%
    14:00 +33°C° 0 mm 3 mps 758 mmHg 34%
    15:00 +33°C° 0 mm 3 mps 758 mmHg 33%
    16:00 +33°C° 0 mm 3 mps 758 mmHg 33%
    17:00 +30°C° 0 mm 2 mps 758 mmHg 39%
    18:00 +29°C° 0 mm 2 mps 758 mmHg 45%
    19:00 +27°C° 0 mm 1 mps 758 mmHg 52%
    20:00 +27°C° 0 mm 1 mps 758 mmHg 54%
    21:00 +26°C° 0 mm 1 mps 759 mmHg 56%
    22:00 +23°C° 0 mm 0 mps 759 mmHg 59%
    23:00 +23°C° 0 mm 0 mps 759 mmHg 60%

    21 July, Sunday

    Time Temperature Precipitation Wind Pressure Humidity
    00:00 +22°C° 0 mm 0 mps 758 mmHg 61%
    01:00 +22°C° 0 mm 0 mps 758 mmHg 63%
    02:00 +22°C° 0 mm 0 mps 758 mmHg 63%
    03:00 +22°C° 0 mm 0 mps 758 mmHg 63%
    04:00 +21°C° 0 mm 0 mps 758 mmHg 64%
    05:00 +25°C° 0 mm 1 mps 758 mmHg 57%
    06:00 +27°C° 0 mm 1 mps 758 mmHg 51%
    07:00 +28°C° 0 mm 1 mps 758 mmHg 45%
    08:00 +30°C° 0 mm 1 mps 758 mmHg 41%
    09:00 +31°C° 0 mm 2 mps 759 mmHg 36%
    10:00 +32°C° 0 mm 2 mps 759 mmHg 31%
    11:00 +34°C° 0 mm 2 mps 759 mmHg 31%
    12:00 +34°C° 0 mm 3 mps 759 mmHg 30%
    13:00 +35°C° 0 mm 3 mps 759 mmHg 30%
    14:00 +35°C° 0 mm 3 mps 758 mmHg 30%
    15:00 +35°C° 0 mm 3 mps 758 mmHg 30%
    16:00 +35°C° 0 mm 3 mps 758 mmHg 31%
    17:00 +32°C° 0 mm 2 mps 758 mmHg 37%
    18:00 +30°C° 0 mm 2 mps 758 mmHg 44%
    19:00 +28°C° 0 mm 1 mps 758 mmHg 51%
    20:00 +28°C° 0 mm 1 mps 758 mmHg 52%
    21:00 +27°C° 0 mm 1 mps 758 mmHg 54%
    22:00 +26°C° 0 mm 1 mps 758 mmHg 56%
    23:00 +26°C° 0 mm 1 mps 758 mmHg 56%
    Show more